[[{"header":{"parameterUnit":"m.s-1","parameterCategory":1,"la1":30.2991,"la2":30.254,"lo1":-89.0895,"lo2":-89.0444,"dy":0.0017,"dx":0.0017,"nx":28,"ny":28,"refTime":"2023-07-24T03:00:00:Z","depth":0,"parameterNumber":2,"parameterNumberName":"U-component_of_WINDS"},"data":[0,0,0,0,0,0,0,0,0,0,0,0,0,0,0,0,0,0,0,0,0,0,0,0,0,0,0,0,0,0,0,0,0,0,0,0,0,0,0,0,0,0,0,0,0,0,0,0,0,0,0,0,0,0,0,0,0,0,-1.7767,-1.7767,0,-1.7807,-1.7807,-1.7808,-1.7714,-1.7711,-1.7708,-1.7706,-1.7748,-1.7752,-1.7756,0,0,0,0,0,0,0,0,0,0,0,0,0,-1.7612,-1.7615,-1.7767,-1.7767,-1.7768,-1.7807,-1.7807,-1.7808,-1.7715,-1.7711,-1.7708,-1.7704,-1.7747,-1.7752,-1.7756,0,0,0,0,0,0,0,0,0,0,0,0,0,-1.7668,-1.7616,-1.7767,-1.7726,-1.7723,-1.7806,-1.7807,-1.7808,-1.7716,-1.7711,-1.7707,-1.7702,-1.7746,-1.7751,-1.7757,-1.7883,0,0,-1.7775,-1.7778,0,0,0,0,0,0,0,0,-1.7665,-1.7674,-1.7732,-1.7729,-1.7726,-1.7751,-1.7768,-1.7833,-1.7717,-1.7719,-1.7705,-1.77,-1.7753,-1.7758,-1.7775,-1.7885,-1.7886,-1.7776,-1.7779,-1.7782,-1.7783,0,0,0,0,0,0,0,-1.7661,-1.7672,-1.7783,-1.7733,-1.7729,-1.7706,-1.7709,-1.778,-1.776,-1.7718,-1.7711,-1.7717,-1.775,-1.777,-1.7776,-1.7887,-1.7775,-1.7781,-1.7784,-1.7786,-1.81,-1.8105,0,0,0,0,0,0,-1.7662,-1.7669,-1.7781,-1.7784,-1.7684,-1.7713,-1.7716,-1.7747,-1.7759,-1.7757,-1.7721,-1.7713,-1.7762,-1.7769,-1.7777,-1.7924,-1.7782,-1.7787,-1.779,-1.8095,-1.8101,-1.8106,0,0,0,0,0,0,-1.766,-1.7673,-1.778,-1.7725,-1.7737,-1.772,-1.7756,-1.7751,-1.777,-1.7761,-1.7758,-1.7744,-1.7759,-1.7768,-1.7857,-1.7924,-1.779,-1.7795,-1.809,-1.8097,-1.8104,-1.822,0,0,0,0,0,0,-1.7655,-1.7673,-1.772,-1.7726,-1.774,-1.7859,-1.776,-1.7754,-1.778,-1.7769,-1.7782,-1.778,-1.7756,-1.7848,-1.7862,-1.793,-1.78,-1.8084,-1.8093,-1.8102,-1.821,-1.8231,-1.8248,0,0,0,0,0,-1.765,-1.7752,-1.7723,-1.7737,-1.7799,-1.7863,-1.7871,-1.784,-1.7786,-1.7833,-1.7828,-1.778,-1.7914,-1.7858,-1.7873,-1.7944,-1.8079,-1.809,-1.8101,-1.8202,-1.8227,-1.8247,0,0,0,0,0,0,-1.7756,-1.7752,-1.772,-1.7827,-1.7846,-1.7847,-1.7907,-1.7868,-1.7903,-1.7892,-1.7853,-1.7857,-1.7952,-1.7956,-1.7894,-1.8065,-1.7987,-1.8002,-1.8059,-1.8083,-1.8101,-1.8098,-1.7804,0,0,0,0,0,-1.7791,-1.7843,-1.7838,-1.7932,-1.7943,-1.7924,-1.7951,-1.7925,-1.7944,-1.7951,-1.7952,-1.7973,-1.8019,-1.8051,-1.8093,-1.821,-1.8211,-1.8266,-1.8284,-1.83,-1.8313,-1.8375,-1.8399,-1.8142,-1.8142,-1.8142,0,0,-1.7865,-1.787,-1.7905,-1.7954,-1.7965,-1.8021,-1.7931,-1.7994,-1.8034,-1.7961,-1.8044,-1.8046,-1.8065,-1.8168,-1.8213,-1.8175,-1.8384,-1.8314,-1.8326,-1.8331,-1.8388,-1.8412,-1.8434,-1.8149,-1.8148,-1.8147,0,0,-1.8029,-1.8038,-1.8117,-1.813,-1.8149,-1.8135,-1.8154,-1.8161,-1.8159,-1.8241,-1.8187,-1.8235,-1.8316,-1.8332,-1.8351,-1.8519,-1.8477,-1.8534,-1.8633,-1.8693,-1.8714,-1.8731,-1.8791,-1.8813,-1.8547,-1.8548,-1.8548,0,-1.8119,-1.82,-1.8163,-1.8229,-1.8252,-1.8187,-1.8267,-1.8282,-1.8314,-1.8332,-1.8287,-1.8387,-1.8396,-1.8501,-1.8542,-1.8559,-1.858,-1.8533,-1.8713,-1.8731,-1.8747,-1.8804,-1.8827,-1.8554,-1.8554,-1.8553,-1.8552,0,-1.831,-1.8367,-1.8429,-1.846,-1.849,-1.8563,-1.8538,-1.8572,-1.8544,-1.8534,-1.8619,-1.8627,-1.8669,-1.8692,-1.8665,-1.8794,-1.8769,-1.872,-1.8641,-1.8779,-1.8832,-1.8853,-1.8564,-1.8562,-1.856,-1.8558,0,0,-1.8543,-1.8552,-1.8575,-1.8588,-1.8603,-1.8646,-1.8716,-1.8757,-1.8787,-1.8811,-1.8869,-1.8938,-1.8892,-1.8913,-1.8888,-1.8941,-1.9073,-1.8885,-1.8884,-1.892,-1.9215,-1.9253,-1.9278,-1.9044,-1.9048,-1.9052,-1.9213,0,-1.8705,-1.8824,-1.8792,-1.8912,-1.8963,-1.8901,-1.8962,-1.8978,-1.8971,-1.9014,-1.9005,-1.9055,-1.8991,-1.9003,-1.9053,-1.9047,-1.9132,-1.9034,-1.9098,-1.9101,-1.9096,-1.9306,-1.9346,-1.9499,-1.9234,-1.9237,-1.924,0,-1.891,-1.894,-1.9065,-1.907,-1.909,-1.9146,-1.918,-1.9222,-1.9238,-1.9229,-1.9252,-1.9216,-1.9284,-1.9204,-1.9298,-1.9233,-1.9257,-1.9257,-1.9263,-1.9268,-1.918,-1.9318,-1.9547,-1.957,-1.9272,-1.9269,-1.9267,0,-1.9068,-1.914,-1.9223,-1.9236,-1.9244,-1.9285,-1.929,-1.9302,-1.9328,-1.9358,-1.9374,-1.9412,-1.9434,-1.9464,-1.9438,-1.9382,-1.9537,-1.9454,-1.9531,-1.9532,-1.9568,-1.9566,-1.9804,-1.9582,-1.9582,-1.9581,-1.9581,0,-1.9252,-1.9331,-1.9294,-1.9346,-1.9431,-1.9394,-1.948,-1.9478,-1.9489,-1.9539,-1.9488,-1.9536,-1.9499,-1.9544,-1.9524,-1.9605,-1.9615,-1.961,-1.9604,-1.9615,-1.9616,-1.9631,-1.962,-1.9587,-1.9586,-1.9585,-1.9584,0,-1.9444,-1.9422,-1.9509,-1.9509,-1.9511,-1.9574,-1.9574,-1.9622,-1.961,-1.9674,-1.9687,-1.9669,-1.9719,-1.9696,-1.9749,-1.9735,-1.9839,-1.9819,-1.9834,-1.9829,-1.9907,-1.99,-2.0164,-2.0197,-1.9953,-1.9956,-1.9958,0,-1.9563,-1.9622,-1.9628,-1.9657,-1.9666,-1.9714,-1.974,-1.9706,-1.9735,-1.9757,-1.9802,-1.9847,-1.9882,-1.9965,-1.9957,-1.9997,-1.9977,-2.0066,-1.9983,-1.9992,-1.9979,-1.9976,-1.9981,-2.0084,-2.0087,-2.0089,-2.0091,0,-1.9778,-1.9764,-1.9803,-1.9839,-1.9871,-1.9898,-1.992,-1.9947,-1.9913,-1.9949,-1.9999,-2.0025,-2.0078,-2.0124,-2.0159,-2.0164,-2.0123,-2.0117,-2.0137,-2.0149,-2.0156,-2.0153,-1.988,-2.0111,-2.0109,-2.0108,-2.0107,-2.0106,-1.9937,-1.9986,-1.9998,-2.0043,-2.0056,-2.0077,-2.0122,-2.0115,-2.0156,-2.0196,-2.0173,-2.0232,-2.0245,-2.0287,-2.0298,-2.0343,-2.0308,-2.0337,-2.0344,-2.0352,-2.0363,-2.0148,-2.035,-2.0349,-2.0348,-2.0348,-2.0347,0,-2.0149,-2.0153,-2.0195,-2.0227,-2.0263,-2.0219,-2.0241,-2.0274,-2.0326,-2.0342,-2.0376,-2.0434,-2.0477,-2.0472,-2.0512,-2.0549,-2.0531,-2.0561,-2.0558,-2.056,-2.0392,-2.0371,-2.0575,-2.0575,-2.0575,-2.0575,-2.0575,-2.0575,-2.0264,-2.0345,-2.0332,-2.0418,-2.0421,-2.0478,-2.0494,-2.0514,-2.0526,-2.0592,-2.0628,-2.0624,-2.0631,-2.0671,-2.0709,-2.0706,-2.0723,-2.076,-2.0751,-2.0594,-2.0572,-2.055,-2.053,-2.0764,-2.0765,-2.0915,-2.0916,-2.0917]},{"header":{"parameterUnit":"m.s-1","parameterCategory":1,"la1":30.2991,"la2":30.254,"lo1":-89.0895,"lo2":-89.0444,"dy":0.0017,"dx":0.0017,"nx":28,"ny":28,"refTime":"2023-07-24T03:00:00:Z","depth":0,"parameterNumber":3,"parameterNumberName":"V-component_of_WINDS"},"data":[0,0,0,0,0,0,0,0,0,0,0,0,0,0,0,0,0,0,0,0,0,0,0,0,0,0,0,0,0,0,0,0,0,0,0,0,0,0,0,0,0,0,0,0,0,0,0,0,0,0,0,0,0,0,0,0,0,0,-3.1589,-3.159,0,-3.1645,-3.1645,-3.1646,-3.16,-3.1598,-3.1596,-3.1595,-3.1648,-3.1651,-3.1654,0,0,0,0,0,0,0,0,0,0,0,0,0,-3.1442,-3.1444,-3.1589,-3.159,-3.1591,-3.1644,-3.1645,-3.1646,-3.1601,-3.1598,-3.1596,-3.1594,-3.1647,-3.1651,-3.1655,0,0,0,0,0,0,0,0,0,0,0,0,0,-3.1502,-3.1445,-3.1589,-3.1575,-3.1574,-3.1644,-3.1645,-3.1646,-3.1601,-3.1598,-3.1595,-3.1593,-3.1646,-3.165,-3.1655,-3.1742,0,0,-3.167,-3.1672,0,0,0,0,0,0,0,0,-3.1499,-3.1508,-3.1576,-3.1576,-3.1575,-3.1613,-3.1613,-3.1678,-3.1602,-3.1591,-3.1595,-3.1591,-3.1638,-3.1644,-3.166,-3.1744,-3.1747,-3.167,-3.1673,-3.1675,-3.1677,0,0,0,0,0,0,0,-3.1495,-3.1505,-3.1611,-3.1577,-3.1577,-3.1564,-3.157,-3.1625,-3.163,-3.1591,-3.1588,-3.1596,-3.1638,-3.1656,-3.1661,-3.1747,-3.167,-3.1674,-3.1677,-3.1679,-3.1904,-3.1907,0,0,0,0,0,0,-3.1492,-3.1502,-3.1609,-3.1613,-3.1529,-3.1569,-3.1575,-3.1603,-3.1629,-3.163,-3.1598,-3.1593,-3.1649,-3.1655,-3.1663,-3.1765,-3.1675,-3.168,-3.1682,-3.1901,-3.1905,-3.1908,0,0,0,0,0,0,-3.1489,-3.1502,-3.1607,-3.1556,-3.1569,-3.1575,-3.1607,-3.1606,-3.1624,-3.1634,-3.1634,-3.1616,-3.1647,-3.1656,-3.1723,-3.1766,-3.1682,-3.1686,-3.1898,-3.1902,-3.1907,-3.1971,0,0,0,0,0,0,-3.1485,-3.1502,-3.1535,-3.1558,-3.1572,-3.1667,-3.1609,-3.1609,-3.1633,-3.1627,-3.1651,-3.1652,-3.1645,-3.1716,-3.1727,-3.1772,-3.169,-3.1894,-3.19,-3.1905,-3.1965,-3.1978,-3.1988,0,0,0,0,0,-3.148,-3.1551,-3.1537,-3.1551,-3.1614,-3.167,-3.1678,-3.167,-3.1637,-3.167,-3.1676,-3.1651,-3.176,-3.1723,-3.1736,-3.1782,-3.1891,-3.1898,-3.1905,-3.196,-3.1975,-3.1988,0,0,0,0,0,0,-3.1533,-3.1554,-3.1539,-3.1619,-3.1643,-3.1662,-3.1704,-3.1686,-3.1719,-3.1712,-3.17,-3.1705,-3.1775,-3.1785,-3.1744,-3.1867,-3.182,-3.183,-3.1858,-3.1872,-3.1883,-3.1879,-3.1694,0,0,0,0,0,-3.1554,-3.1599,-3.1614,-3.1683,-3.1696,-3.1698,-3.1722,-3.1714,-3.1738,-3.1747,-3.1758,-3.1782,-3.1821,-3.1847,-3.1884,-3.1967,-3.197,-3.2005,-3.2016,-3.2025,-3.2034,-3.2077,-3.2093,-3.1931,-3.1931,-3.1931,0,0,-3.1598,-3.1615,-3.1643,-3.1694,-3.1712,-3.1757,-3.1707,-3.1757,-3.179,-3.1754,-3.1818,-3.1827,-3.1852,-3.1927,-3.1961,-3.1937,-3.2079,-3.2034,-3.2042,-3.2045,-3.2086,-3.2101,-3.2115,-3.1936,-3.1935,-3.1934,0,0,-3.1701,-3.1718,-3.1778,-3.1797,-3.1824,-3.1825,-3.1839,-3.1861,-3.1866,-3.193,-3.1904,-3.1942,-3.2011,-3.2029,-3.2048,-3.2157,-3.2135,-3.217,-3.2229,-3.2272,-3.2284,-3.2296,-3.2334,-3.2348,-3.2178,-3.2178,-3.2178,0,-3.1751,-3.1819,-3.181,-3.1862,-3.1885,-3.1856,-3.1915,-3.1933,-3.1971,-3.1987,-3.1961,-3.2045,-3.206,-3.2139,-3.2166,-3.2182,-3.2197,-3.2167,-3.2284,-3.2295,-3.2305,-3.2341,-3.2356,-3.2182,-3.2182,-3.2181,-3.2181,0,-3.188,-3.1927,-3.1972,-3.201,-3.2038,-3.2093,-3.2091,-3.212,-3.2109,-3.2112,-3.2177,-3.2194,-3.2233,-3.2251,-3.2241,-3.2328,-3.2313,-3.2286,-3.2238,-3.2324,-3.2358,-3.2372,-3.2188,-3.2187,-3.2185,-3.2184,0,0,-3.2017,-3.205,-3.2066,-3.2083,-3.2111,-3.2147,-3.22,-3.224,-3.2264,-3.2291,-3.2335,-3.2393,-3.2368,-3.2389,-3.238,-3.2418,-3.2502,-3.2386,-3.2386,-3.2406,-3.2598,-3.2618,-3.2635,-3.2488,-3.2491,-3.2493,-3.2596,0,-3.2121,-3.2215,-3.2208,-3.2296,-3.234,-3.2312,-3.2359,-3.238,-3.2385,-3.2421,-3.2425,-3.2467,-3.2431,-3.2443,-3.2479,-3.2485,-3.2541,-3.2477,-3.2527,-3.2529,-3.2522,-3.2653,-3.2674,-3.2771,-3.2609,-3.2611,-3.2613,0,-3.2254,-3.2286,-3.2379,-3.2401,-3.2418,-3.246,-3.2495,-3.2531,-3.2554,-3.2555,-3.2578,-3.2563,-3.2616,-3.2568,-3.264,-3.2597,-3.2617,-3.2622,-3.2626,-3.263,-3.2576,-3.2659,-3.2801,-3.2815,-3.2634,-3.2632,-3.2631,0,-3.2344,-3.2411,-3.2475,-3.249,-3.2516,-3.2546,-3.2559,-3.258,-3.2603,-3.2634,-3.2649,-3.2685,-3.2704,-3.2732,-3.2726,-3.2692,-3.2799,-3.2751,-3.28,-3.28,-3.2823,-3.2821,-3.297,-3.2837,-3.2837,-3.2837,-3.2837,0,-3.246,-3.2517,-3.2515,-3.2555,-3.2618,-3.2609,-3.2672,-3.268,-3.2699,-3.2739,-3.2717,-3.2755,-3.2745,-3.2782,-3.2778,-3.2838,-3.2847,-3.2848,-3.2846,-3.2849,-3.2849,-3.2862,-3.2855,-3.2841,-3.284,-3.2839,-3.2838,0,-3.2571,-3.2572,-3.264,-3.266,-3.2666,-3.2712,-3.2728,-3.2764,-3.2767,-3.2817,-3.2828,-3.2832,-3.2874,-3.2872,-3.2919,-3.2916,-3.2989,-3.298,-3.2982,-3.298,-3.3028,-3.3024,-3.3189,-3.321,-3.3065,-3.3067,-3.3068,0,-3.2644,-3.2688,-3.2713,-3.2738,-3.2753,-3.2794,-3.2818,-3.2811,-3.2837,-3.2867,-3.2899,-3.294,-3.2971,-3.304,-3.3046,-3.3082,-3.3073,-3.3128,-3.3078,-3.308,-3.3072,-3.307,-3.3074,-3.3138,-3.314,-3.3141,-3.3142,0,-3.2774,-3.2773,-3.2809,-3.2846,-3.2876,-3.2904,-3.293,-3.2952,-3.2947,-3.2977,-3.3021,-3.3045,-3.3094,-3.3134,-3.3168,-3.3179,-3.316,-3.3158,-3.3171,-3.3175,-3.3174,-3.3174,-3.3008,-3.3154,-3.3153,-3.3152,-3.3151,-3.3151,-3.2868,-3.2906,-3.2929,-3.297,-3.2989,-3.3013,-3.3049,-3.3056,-3.3092,-3.3132,-3.3125,-3.3173,-3.3194,-3.3239,-3.3253,-3.329,-3.327,-3.3289,-3.3294,-3.3298,-3.3304,-3.3169,-3.3296,-3.3296,-3.3295,-3.3295,-3.3295,0,-3.2996,-3.301,-3.3048,-3.3085,-3.3118,-3.3098,-3.3125,-3.3153,-3.3196,-3.3218,-3.325,-3.3299,-3.3338,-3.3347,-3.3384,-3.3411,-3.3403,-3.3421,-3.3419,-3.3421,-3.332,-3.3305,-3.3427,-3.3427,-3.3427,-3.3427,-3.3427,-3.3427,-3.3067,-3.3129,-3.313,-3.3201,-3.3214,-3.3262,-3.3279,-3.3301,-3.3318,-3.3375,-3.3407,-3.3413,-3.343,-3.3468,-3.3502,-3.3503,-3.3517,-3.3539,-3.3537,-3.3442,-3.3428,-3.3416,-3.3401,-3.3542,-3.3542,-3.3635,-3.3636,-3.3636]}]]